Location: Unspecified
(0.0000°N, 0.0000°E)
Time: 07:12:03
(UTC+00:00)

SEEDS - Visible Passes

Search period start: 17 June 2019 00:00
Search period end: 27 June 2019 00:00
Orbit: 587 x 603 km, 97.5° (Epoch: 16 June)

Date Brightness Start Highest point End Pass type
(mag) Time Alt. Az. Time Alt. Az. Time Alt. Az.
18 Jun ? 18:26:21 10° SSW 18:29:54 26° WSW 18:33:27 10° NW visible
19 Jun ? 04:57:20 10° ENE 04:59:20 13° ESE 05:01:20 10° SE visible
19 Jun ? 18:36:30 10° SSW 18:39:32 19° WSW 18:42:34 10° NW visible
20 Jun ? 05:06:04 10° ENE 05:08:57 18° ESE 05:11:51 10° SE visible
20 Jun ? 18:46:55 10° SW 18:49:10 14° WSW 18:51:24 10° WNW visible
21 Jun ? 05:15:09 10° NE 05:18:35 25° ESE 05:22:01 10° SSE visible
22 Jun ? 05:24:25 10° NE 05:28:13 35° E 05:32:00 10° SSE visible
23 Jun ? 05:33:50 10° NNE 05:37:51 49° ESE 05:41:52 10° S visible
